Wind_Speed
18 18 19 19 20 20 19 18 19 19 19 19 18 18 17 17 17 17 16 16 16 16 16 15 15 15 15 16 16 16 16 15 15 15 15 14 13 13 12 12 12 11 12 12 12 11 11 10 10
18 18 19 20 21 20 19 19 19 19 20 20 19 19 18 18 18 17 17 17 17 17 16 16 16 16 16 16 17 17 17 16 16 16 16 15 15 15 15 14 13 13 14 14 13 13 12 12 12
19 20 20 21 22 21 21 20 21 20 20 21 20 20 20 19 19 18 18 18 18 18 17 17 17 17 17 17 17 18 17 17 17 17 17 17 17 17 17 16 16 15 15 15 15 15 14 14 13
21 21 22 23 23 22 22 22 22 22 22 22 22 22 21 20 20 20 19 19 19 19 18 18 18 18 18 18 18 19 19 19 19 19 18 18 18 18 18 17 17 16 16 16 17 16 16 15 14
22 23 24 24 24 23 22 22 23 23 23 23 23 23 22 22 22 22 21 20 20 20 19 19 19 18 18 19 19 20 20 20 20 20 20 19 19 19 19 19 18 18 17 17 18 18 18 17 16
23 24 25 25 24 24 23 23 24 24 25 25 25 24 24 24 24 23 23 22 22 22 21 21 21 20 20 20 21 21 22 22 22 22 22 21 21 21 21 21 21 21 20 19 19 20 20 19 18
24 25 25 25 25 25 24 24 25 25 26 26 26 26 25 25 26 25 25 25 24 24 24 23 23 22 23 23 23 23 24 24 24 24 23 23 23 23 23 22 22 22 22 21 21 22 22 21 21
24 25 25 25 25 25 26 26 26 27 27 27 28 27 27 26 27 27 27 26 26 26 26 26 25 25 25 25 25 25 26 26 27 26 26 25 25 25 24 24 24 24 24 24 23 23 23 24 23
25 26 26 26 26 26 26 27 28 29 29 28 28 29 28 28 28 28 28 28 28 28 28 28 28 28 28 27 27 27 28 29 29 29 28 28 27 27 26 26 26 26 26 26 26 26 26 26 26
26 26 26 26 26 26 27 28 29 30 30 30 30 30 30 30 30 30 30 30 30 30 30 30 30 30 30 30 29 29 30 30 31 31 30 30 29 29 29 29 29 28 28 28 28 28 28 28 27
27 27 26 27 27 27 28 28 29 30 31 32 32 32 32 32 32 32 32 32 32 32 32 32 32 32 32 32 31 31 32 32 32 32 32 32 32 31 31 31 31 31 31 31 30 30 30 30 30
27 27 27 28 28 29 29 30 30 31 32 33 34 34 34 33 34 34 33 33 33 33 34 34 33 33 33 33 33 33 33 34 34 34 34 34 34 34 34 33 32 33 33 33 33 32 32 32 32
28 29 29 30 30 31 31 31 32 32 33 34 35 36 36 36 36 35 35 35 34 34 35 35 35 35 34 34 34 34 35 35 36 36 36 36 35 35 35 35 35 34 35 35 35 34 34 34 34
29 30 31 31 32 33 33 33 33 33 35 35 36 37 37 37 37 37 37 36 36 36 36 36 36 36 36 36 36 36 36 37 37 38 39 39 38 38 37 37 37 37 36 37 37 37 36 36 36
31 32 32 33 33 34 35 35 34 35 36 36 37 38 39 39 38 38 38 38 38 38 38 38 38 38 38 38 38 38 38 38 39 40 40 41 41 41 40 39 40 39 39 38 39 39 39 38 38
32 33 33 33 34 35 36 35 34 36 36 36 37 38 39 40 40 40 39 39 39 40 40 40 39 39 40 40 40 40 40 40 41 41 42 43 43 43 43 43 42 42 42 41 41 41 42 41 40
32 33 33 34 35 35 36 35 35 36 37 37 37 38 39 40 41 41 41 41 42 42 42 42 42 42 41 42 42 42 42 42 42 42 42 43 44 45 45 45 45 45 44 43 43 43 43 43 43
32 33 34 34 34 35 35 35 35 36 37 37 38 38 39 40 42 43 43 44 44 44 44 44 44 44 44 44 44 44 44 44 44 44 44 44 45 45 46 45 45 46 46 46 45 45 45 45 45
32 33 33 33 34 35 35 35 35 37 37 38 38 39 40 41 42 44 45 46 46 46 46 46 46 46 46 46 46 46 46 46 46 46 46 46 47 47 47 47 47 47 47 46 46 46 47 47 46
32 32 32 33 34 35 35 35 35 36 36 37 38 38 39 40 42 43 45 46 47 47 48 48 48 48 48 48 48 48 48 48 48 47 47 48 48 48 48 48 48 48 48 48 48 47 47 48 48
33 33 33 34 35 35 36 35 34 34 35 36 37 37 38 39 41 42 44 45 46 47 48 49 49 50 51 50 50 49 49 49 49 49 49 48 49 49 49 49 49 49 49 49 49 49 48 48 49
33 33 34 34 35 35 36 37 34 34 35 36 36 37 38 39 40 41 42 44 45 46 48 49 50 51 52 52 52 51 51 51 50 50 50 50 50 50 50 51 51 51 51 50 51 51 51 51 51
34 34 35 35 36 36 36 38 35 35 35 36 37 38 38 39 39 40 41 42 44 45 46 47 48 50 51 52 52 52 52 52 52 51 52 52 51 52 52 52 52 53 52 52 52 53 52 52 52
34 34 35 36 36 37 36 37 37 35 35 35 36 37 38 39 39 40 41 41 43 44 45 45 47 48 49 50 52 52 52 52 52 52 52 53 53 53 53 53 54 54 54 54 54 55 54 54 54
34 34 36 37 37 38 37 38 37 35 35 35 36 36 37 38 39 40 41 42 43 43 44 45 46 47 48 49 51 52 52 53 53 54 53 54 55 55 54 55 55 55 55 56 57 57 56 56 56
34 34 35 37 38 38 38 38 36 34 34 34 35 36 37 37 38 39 40 41 42 43 45 45 45 46 47 48 50 50 51 53 54 55 55 55 56 56 55 56 56 56 56 57 57 57 58 58 57
34 34 34 36 38 39 39 38 36 34 34 34 35 36 37 37 38 39 40 41 42 43 44 45 45 45 46 48 49 50 51 52 54 55 56 57 57 57 57 57 56 57 57 58 58 59 59 58 58
32 33 34 35 37 39 39 38 37 34 34 35 35 35 36 37 38 40 40 41 42 42 43 45 45 45 46 47 49 50 51 52 53 54 56 57 57 57 57 57 57 57 57 57 58 59 59 59 59
32 32 33 35 37 39 40 38 35 34 35 35 36 36 36 37 39 40 41 41 42 42 43 44 45 45 46 47 49 50 51 51 52 53 54 55 56 56 57 58 58 58 58 58 59 59 59 60 60
33 32 32 34 36 38 39 38 35 35 36 37 37 37 37 38 39 40 41 41 42 43 43 44 45 45 46 47 48 50 51 52 52 52 53 53 54 55 56 57 57 57 57 59 59 59 60 61 61
Wind_Direction
246 246 246 245 246 246 245 244 244 242 241 243 244 244 244 244 245 246 246 244 243 243 243 242 242 243 241 239 238 239 240 241 240 241 242 242 240 239 241 240 240 241 239 235 234 232 232 230 230
248 247 247 246 246 247 246 245 245 243 243 243 244 245 244 244 245 246 245 244 243 243 244 244 244 243 243 242 241 242 242 242 242 242 243 244 243 242 242 242 242 242 241 237 237 235 234 234 231
249 248 248 248 248 248 248 247 246 245 245 245 245 245 245 245 245 245 244 244 244 244 245 245 244 244 244 244 243 243 242 242 242 244 245 246 245 243 243 243 242 241 239 237 238 237 236 237 235
251 250 249 249 249 249 248 247 246 246 246 246 246 246 245 245 245 245 245 246 246 246 245 245 246 244 244 245 246 246 245 245 244 246 248 248 247 244 242 241 241 241 241 240 239 238 238 238 238
252 251 251 251 251 250 248 247 246 247 247 247 247 247 246 246 246 245 245 246 246 247 246 247 247 247 247 248 249 249 248 247 247 247 248 248 248 247 244 242 241 243 243 242 242 241 240 239 239
253 253 252 252 252 251 249 248 248 248 249 248 249 249 248 247 246 246 246 247 247 248 248 248 249 250 250 250 251 251 249 248 248 247 248 248 248 248 247 245 243 244 245 245 244 243 242 240 239
255 254 254 253 252 252 251 250 250 249 249 249 249 249 249 248 248 247 247 247 248 249 250 251 251 252 253 253 254 253 251 249 249 249 248 248 248 249 249 248 246 246 246 246 247 245 244 243 241
257 256 255 255 254 253 252 252 251 251 251 250 250 250 249 249 249 249 248 248 248 249 250 252 253 253 254 255 255 255 253 251 250 250 249 249 249 249 250 249 249 248 247 246 247 247 247 244 243
258 258 257 257 256 255 253 252 251 251 252 251 251 251 250 250 251 251 250 250 250 251 252 253 254 254 255 256 256 256 254 252 251 250 250 250 250 250 251 250 250 250 249 248 247 248 248 246 246
260 260 260 259 257 255 253 253 252 252 252 252 252 252 252 252 252 252 252 252 252 252 252 253 255 255 255 256 256 256 255 254 252 251 251 251 251 251 252 252 251 251 252 251 250 249 248 247 247
262 261 260 259 258 256 255 255 254 253 253 253 253 253 253 253 253 253 253 253 253 252 253 253 254 256 256 256 257 257 255 255 254 252 252 252 252 252 253 252 251 252 253 253 252 251 250 249 249
263 261 260 260 259 258 258 257 256 256 255 254 254 253 254 254 254 253 253 253 253 253 253 253 254 255 256 257 258 258 257 255 255 253 252 253 252 252 253 253 253 253 253 253 253 252 251 250 250
264 263 262 261 260 260 259 259 258 258 257 255 255 254 254 254 254 254 253 253 254 254 253 253 254 255 256 257 258 259 258 256 256 254 253 253 253 253 254 254 254 253 252 252 252 252 252 251 250
267 266 264 263 262 261 261 260 260 260 259 257 256 255 254 254 253 254 254 253 253 254 254 254 255 256 257 258 258 259 259 257 256 256 254 254 254 254 254 254 253 254 253 252 251 251 251 251 251
269 268 267 266 265 264 263 262 262 261 260 258 256 255 254 254 254 253 254 254 254 254 255 255 256 257 257 258 259 259 259 258 257 257 256 255 255 255 254 254 254 255 255 253 251 250 250 250 251
270 269 269 268 267 266 265 264 263 262 261 260 258 255 254 254 254 254 254 254 254 255 255 255 256 257 257 258 259 259 259 259 258 258 257 256 256 255 255 255 255 255 255 254 253 251 250 250 250
270 270 270 269 268 267 267 267 265 264 263 261 259 257 256 254 254 254 254 254 254 255 255 256 256 257 258 259 259 260 260 260 259 258 258 258 257 256 256 256 256 255 254 254 253 252 250 250 251
274 272 271 270 269 267 267 267 266 265 264 262 260 259 258 256 255 255 255 255 256 256 256 256 257 258 259 259 260 261 261 261 261 260 259 258 257 257 256 256 256 256 255 254 253 252 251 251 251
274 273 272 271 270 269 268 267 266 266 264 263 261 260 258 258 257 257 256 256 256 256 257 257 258 259 259 259 260 261 261 262 262 262 260 259 258 257 257 257 256 256 256 255 253 252 252 251 250
274 274 273 272 271 270 269 268 267 267 265 264 262 262 260 260 260 259 258 257 257 258 258 258 258 258 259 259 260 261 262 262 262 261 260 259 258 257 256 257 257 257 256 256 254 253 252 251 250
274 275 275 275 273 272 272 270 267 266 265 264 263 263 263 263 263 261 260 259 258 259 259 259 259 258 259 259 260 261 261 261 261 260 260 259 259 258 257 256 256 257 257 256 255 254 253 252 251
275 275 276 275 275 274 274 273 268 267 266 265 265 265 266 265 265 264 263 262 261 260 261 260 260 259 259 260 260 261 261 261 260 260 260 260 259 258 257 256 256 257 257 257 257 256 255 254 253
275 275 275 275 275 274 274 275 272 269 268 267 267 267 267 267 267 266 265 264 263 262 262 262 261 260 260 260 259 260 260 260 259 259 259 259 259 259 258 257 257 257 257 257 258 257 256 255 254
276 275 275 275 275 275 275 276 274 272 271 271 270 269 269 269 268 267 266 266 265 264 264 263 263 262 261 260 259 259 259 259 259 258 258 258 259 259 259 259 258 258 257 257 257 257 257 256 255
276 275 275 275 275 276 277 277 277 277 275 274 273 271 270 270 270 269 267 267 266 266 265 265 264 264 263 261 259 259 259 259 259 258 258 258 258 259 259 259 259 259 258 257 257 257 257 257 256
277 276 276 277 278 278 278 278 279 279 277 276 274 274 273 272 272 271 269 269 268 267 266 265 265 265 264 262 260 260 260 260 260 259 259 259 259 258 258 259 260 260 259 258 257 257 258 258 256
277 275 275 276 277 278 278 279 279 280 280 278 278 277 276 275 273 272 271 271 270 268 267 266 265 265 265 263 261 260 261 261 261 261 261 260 259 258 258 259 260 260 260 259 258 258 258 258 257
280 279 277 276 278 279 279 280 282 280 279 279 279 278 277 276 276 273 272 272 272 270 269 267 266 266 266 264 263 262 262 263 262 262 261 260 260 259 258 259 259 260 260 259 259 258 258 258 257
283 281 279 277 277 279 281 282 283 282 280 281 280 280 278 277 276 275 274 272 272 271 270 268 267 267 266 266 265 264 264 264 265 263 262 262 260 259 258 258 259 259 259 259 259 259 258 258 258
282 282 280 278 278 278 281 283 284 282 282 282 281 281 278 277 276 276 275 274 272 272 270 269 269 269 268 267 266 265 265 265 265 264 263 262 262 260 259 259 259 259 259 259 259 259 259 259 259
Height
5809 5810 5812 5813 5814 5815 5815 5817 5817 5818 5818 5819 5820 5821 5822 5823 5824 5827 5826 5825 5825 5826 5827 5827 5828 5829 5829 5830 5831 5832 5833 5834 5835 5835 5836 5836 5837 5837 5838 5839 5839 5840 5840 5841 5841 5842 5843 5843 5844
5806 5807 5808 5809 5810 5811 5812 5813 5813 5814 5814 5815 5816 5817 5818 5819 5820 5821 5821 5822 5822 5823 5824 5824 5825 5826 5826 5827 5828 5829 5830 5830 5831 5832 5833 5833 5834 5835 5835 5836 5836 5837 5837 5838 5839 5840 5840 5841 5842
5802 5803 5804 5805 5805 5807 5808 5809 5809 5809 5810 5811 5812 5812 5814 5815 5816 5816 5817 5818 5819 5820 5820 5821 5822 5822 5823 5824 5825 5826 5826 5827 5828 5829 5830 5830 5831 5831 5832 5833 5833 5834 5834 5835 5836 5837 5838 5839 5839
5798 5799 5800 5801 5801 5803 5804 5804 5804 5805 5806 5807 5807 5808 5810 5811 5811 5812 5813 5814 5815 5816 5817 5817 5818 5819 5819 5820 5821 5822 5823 5824 5824 5825 5826 5827 5827 5828 5829 5829 5830 5831 5831 5832 5833 5834 5835 5836 5837
5794 5794 5795 5796 5797 5798 5799 5799 5800 5800 5801 5802 5803 5804 5805 5806 5807 5808 5809 5810 5811 5812 5813 5813 5814 5815 5815 5816 5817 5818 5818 5820 5820 5821 5822 5823 5823 5824 5825 5826 5827 5827 5828 5829 5830 5831 5832 5833 5834
5789 5789 5790 5791 5792 5793 5794 5794 5795 5795 5796 5797 5798 5799 5800 5801 5802 5803 5804 5805 5806 5807 5808 5809 5810 5810 5811 5811 5812 5813 5814 5815 5816 5816 5817 5818 5819 5820 5821 5822 5823 5824 5824 5825 5826 5827 5828 5829 5830
5784 5784 5785 5786 5787 5788 5789 5789 5790 5790 5791 5792 5792 5793 5795 5796 5797 5798 5799 5800 5801 5802 5803 5804 5805 5805 5806 5806 5807 5807 5808 5809 5810 5811 5812 5813 5814 5815 5816 5817 5818 5819 5820 5821 5822 5822 5824 5825 5826
5778 5779 5779 5780 5781 5782 5783 5783 5784 5784 5785 5786 5787 5788 5789 5790 5791 5792 5793 5794 5796 5797 5798 5798 5799 5800 5801 5801 5801 5802 5803 5804 5805 5806 5807 5808 5809 5810 5811 5812 5813 5814 5815 5816 5817 5817 5819 5820 5821
5772 5774 5774 5775 5775 5776 5777 5777 5778 5778 5779 5780 5780 5782 5783 5784 5785 5786 5787 5788 5790 5791 5792 5792 5793 5794 5794 5795 5795 5796 5796 5797 5798 5800 5801 5802 5803 5804 5805 5806 5807 5808 5810 5811 5812 5812 5814 5815 5816
5766 5767 5768 5769 5769 5770 5770 5771 5771 5772 5772 5773 5774 5775 5776 5777 5778 5779 5780 5781 5783 5784 5785 5785 5786 5787 5788 5788 5789 5789 5790 5790 5792 5793 5794 5796 5797 5798 5799 5800 5801 5803 5804 5805 5806 5807 5808 5809 5810
5759 5761 5761 5761 5762 5762 5763 5763 5764 5765 5766 5766 5767 5767 5768 5769 5770 5772 5773 5774 5775 5777 5778 5778 5779 5780 5781 5781 5782 5782 5783 5783 5784 5786 5787 5789 5790 5791 5792 5793 5795 5796 5797 5798 5799 5800 5802 5803 5804
5753 5753 5754 5754 5754 5755 5755 5756 5756 5757 5758 5758 5758 5759 5760 5761 5762 5764 5765 5766 5767 5769 5770 5771 5771 5772 5773 5774 5774 5775 5775 5776 5777 5778 5780 5781 5782 5784 5785 5786 5787 5788 5790 5791 5792 5793 5795 5796 5798
5745 5746 5746 5746 5746 5747 5747 5748 5748 5749 5749 5749 5750 5751 5752 5753 5754 5755 5756 5758 5759 5760 5761 5762 5763 5764 5765 5766 5766 5767 5767 5768 5769 5770 5771 5773 5774 5776 5777 5778 5779 5780 5782 5783 5784 5786 5787 5789 5790
5738 5738 5738 5738 5738 5738 5738 5739 5740 5741 5740 5740 5741 5742 5742 5743 5745 5746 5747 5749 5750 5751 5752 5753 5754 5755 5756 5757 5758 5758 5759 5760 5760 5761 5763 5764 5765 5767 5768 5769 5770 5772 5773 5774 5776 5777 5779 5781 5782
5730 5730 5730 5730 5729 5729 5729 5730 5731 5731 5730 5731 5731 5732 5733 5734 5735 5736 5738 5739 5741 5742 5743 5744 5745 5746 5747 5748 5748 5749 5750 5751 5751 5752 5753 5754 5756 5757 5758 5759 5761 5762 5763 5764 5766 5768 5770 5772 5773
5722 5721 5721 5722 5720 5720 5721 5722 5721 5720 5720 5720 5721 5721 5722 5723 5725 5726 5727 5729 5730 5732 5733 5734 5735 5736 5737 5738 5739 5739 5740 5741 5741 5742 5743 5744 5745 5746 5747 5749 5750 5751 5752 5754 5756 5758 5760 5762 5764
5713 5712 5712 5712 5711 5710 5710 5711 5711 5709 5709 5709 5710 5710 5711 5712 5714 5715 5716 5718 5719 5721 5722 5723 5725 5726 5727 5727 5728 5729 5730 5730 5731 5731 5732 5733 5734 5734 5736 5737 5738 5739 5741 5743 5744 5747 5749 5751 5753
5704 5703 5703 5702 5701 5700 5699 5700 5700 5698 5698 5698 5699 5699 5700 5701 5702 5703 5704 5706 5707 5709 5711 5712 5713 5714 5715 5716 5717 5718 5718 5719 5719 5720 5721 5721 5722 5723 5723 5725 5726 5728 5729 5731 5733 5735 5737 5740 5742
5694 5693 5693 5692 5690 5689 5689 5689 5688 5687 5687 5687 5687 5688 5688 5689 5689 5690 5692 5693 5695 5697 5698 5700 5701 5702 5703 5704 5705 5706 5707 5707 5707 5708 5708 5709 5710 5711 5712 5713 5714 5715 5717 5719 5721 5723 5725 5727 5730
5684 5683 5683 5682 5680 5678 5678 5678 5678 5676 5676 5676 5676 5676 5677 5677 5677 5678 5679 5680 5682 5683 5685 5686 5688 5689 5690 5691 5692 5693 5694 5694 5695 5695 5696 5696 5697 5699 5699 5700 5702 5703 5705 5706 5708 5710 5712 5715 5718
5675 5674 5673 5671 5670 5668 5666 5667 5668 5667 5665 5666 5666 5665 5665 5665 5665 5666 5666 5667 5668 5669 5670 5672 5673 5674 5676 5677 5678 5679 5680 5680 5681 5682 5683 5684 5685 5686 5687 5688 5689 5690 5692 5694 5695 5697 5700 5702 5705
5665 5665 5663 5661 5659 5657 5656 5654 5657 5656 5655 5655 5655 5654 5654 5654 5653 5653 5654 5654 5655 5656 5656 5657 5658 5659 5661 5662 5663 5664 5665 5667 5668 5669 5670 5671 5672 5673 5674 5675 5676 5677 5679 5680 5682 5684 5686 5689 5691
5655 5654 5652 5650 5648 5646 5645 5643 5646 5646 5644 5644 5644 5643 5642 5642 5642 5641 5641 5641 5641 5641 5642 5643 5643 5644 5645 5647 5648 5649 5650 5652 5653 5655 5656 5657 5658 5659 5660 5661 5662 5664 5665 5667 5669 5671 5673 5675 5677
5645 5644 5641 5639 5637 5635 5636 5633 5633 5635 5634 5633 5632 5631 5630 5630 5629 5629 5629 5628 5628 5628 5628 5629 5629 5630 5631 5632 5633 5634 5635 5637 5638 5640 5641 5643 5644 5645 5646 5647 5648 5650 5651 5653 5654 5657 5658 5660 5663
5635 5633 5631 5628 5626 5625 5625 5622 5623 5624 5623 5622 5620 5619 5618 5617 5617 5617 5616 5615 5615 5615 5615 5615 5615 5616 5616 5617 5618 5619 5620 5621 5623 5624 5626 5627 5629 5630 5632 5633 5634 5635 5636 5638 5640 5641 5644 5645 5648
5624 5623 5621 5618 5616 5615 5614 5611 5614 5614 5612 5610 5609 5607 5606 5605 5605 5604 5603 5603 5602 5602 5602 5602 5602 5602 5602 5602 5603 5604 5605 5606 5607 5609 5610 5611 5613 5615 5616 5617 5618 5620 5621 5622 5624 5626 5628 5630 5632
5613 5612 5611 5608 5605 5604 5602 5602 5604 5603 5601 5599 5598 5596 5594 5593 5592 5591 5590 5590 5589 5589 5588 5588 5588 5588 5588 5588 5589 5589 5590 5590 5592 5593 5594 5595 5596 5598 5600 5601 5602 5604 5605 5606 5608 5610 5612 5613 5616
5604 5602 5600 5597 5594 5592 5592 5591 5593 5592 5590 5588 5586 5584 5583 5581 5579 5578 5578 5577 5576 5575 5575 5574 5574 5574 5574 5574 5574 5575 5575 5575 5576 5576 5577 5578 5580 5581 5583 5585 5586 5587 5588 5589 5591 5593 5595 5597 5599
5594 5593 5590 5587 5585 5583 5580 5583 5583 5581 5579 5577 5575 5573 5571 5569 5568 5566 5565 5564 5563 5562 5561 5561 5560 5560 5560 5560 5560 5560 5560 5560 5560 5560 5561 5562 5563 5564 5566 5568 5569 5570 5571 5573 5575 5576 5578 5580 5582
5583 5582 5580 5578 5575 5573 5570 5573 5572 5570 5567 5565 5564 5561 5559 5557 5556 5554 5552 5551 5550 5549 5548 5547 5547 5547 5546 5546 5545 5545 5545 5545 5545 5545 5545 5545 5546 5547 5549 5551 5552 5553 5554 5556 5558 5560 5561 5563 5565